Location: Albany
(35.0170°S, 117.8920°E)
Time: 17:36:20
(UTC+08:00)

Transit 2A - Pass Details

Date: 23 January 2021
Orbit: 601 x 958 km, 66.7° (Epoch: 02 March)

Event Time Altitude Azimuth Distance (km) Brightness Sun altitude
Rises 16:50:05 0° 300° (WNW) 2,971 9.8 29.1°
Reaches altitude 10° 16:52:41 10° 285° (WNW) 2,117 9.7 28.6°
Maximum altitude 16:56:33 24° 232° (SW) 1,484 8.7 27.8°
Drops below altitude 10° 17:00:44 10° 178° (S) 2,314 8.6 26.9°
Sets 17:03:44 0° 164° (SSE) 3,320 9.2 26.3°
